Regional Weather Roundup
Issued by NWS

Home | Current Version | Previous Version | Graphics & Text | Print | Product List | Glossary Off
Versions: 1 2 3 4 5 6 7 8 9 10 11 12 13 14 15 16 17 18 19 20 21 22 23 24 25 26 27 28 29 30 31 32 33 34 35 36 37 38 39 40 41 42 43 44 45 46 47 48 49 50

153
ASUS43 KLSX 170557
RWRMO

WEATHER SUMMARY FOR MISSOURI
NATIONAL WEATHER SERVICE SPRINGFIELD MO
100 AM CDT TUE OCT 17 2017

NOTE: "FAIR" INDICATES FEW OR NO CLOUDS BELOW 12,000 FEET WITH NO
       SIGNIFICANT WEATHER AND/OR OBSTRUCTIONS TO VISIBILITY.
       CURRENT SKY AND/OR WEATHER CONDITIONS ARE NOT AVAILABLE FOR
       CHILLICOTHE AND FARMINGTON.

MOZ001>031-035>038-043-044-053-054-170700-
...NORTHERN AND WESTERN MISSOURI...

CITY           SKY/WX    TMP DP  RH WIND       PRES   REMARKS
KANSAS CTY INT PTCLDY    50  42  74 S9        30.22F
6HR MIN TEMP:  48; 6HR MAX TEMP:  52;

LEE`S SUMMIT   CLEAR     53  42  66 SW10      30.24S
6HR MIN TEMP:  53; 6HR MAX TEMP:  60;

ST JOSEPH      CLEAR     49  43  80 S7        30.20F
6HR MIN TEMP:  47; 6HR MAX TEMP:  60;

CHILLICOTHE      N/A     49  44  83 S5        30.24S
6HR MIN TEMP:  49; 6HR MAX TEMP:  58;


$$
MOZ066>068-077>081-088>096-101>105-170700-
...SOUTHWEST MISSOURI...

CITY           SKY/WX    TMP DP  RH WIND       PRES   REMARKS
SPRINGFIELD    CLEAR     46  40  79 S3        30.29S
6HR MIN TEMP:  43; 6HR MAX TEMP:  59;

JOPLIN         CLEAR     42  42 100 SE5       30.28F
6HR MIN TEMP:  42; 6HR MAX TEMP:  57;


$$
MOZ032>034-039>042-045>050-055>058-069>072-170700-
...CENTRAL MISSOURI...

CITY           SKY/WX    TMP DP  RH WIND       PRES   REMARKS
COLUMBIA       NOT AVBL
JEFFERSON CITY CLEAR     45  41  86 SE5       30.28F
6HR MIN TEMP:  44; 6HR MAX TEMP:  60;

ROLLA          CLEAR     44  37  76 SW6       30.30S
6HR MIN TEMP:  44; 6HR MAX TEMP:  53;

SEDALIA        CLEAR     49  44  83 S6        30.27F
6HR MIN TEMP:  47; 6HR MAX TEMP:  61;

WARRENSBURG    CLEAR     46  41  81 S6        30.25S

$$
MOZ051-052-059>065-170700-
...EAST CENTRAL MISSOURI...

CITY           SKY/WX    TMP DP  RH WIND       PRES   REMARKS
ST LOUIS INTL  NOT AVBL

$$
MOZ072>076-082>087-097>100-106>115-170700-
...SOUTH CENTRAL AND SOUTHEAST MISSOURI...

CITY           SKY/WX    TMP DP  RH WIND       PRES   REMARKS
CAPE GIRARDEAU CLEAR     41  39  93 CALM      30.32S
6HR MIN TEMP:  38; 6HR MAX TEMP:  55;

POPLAR BLUFF   CLEAR     41  39  93 CALM      30.32S
6HR MIN TEMP:  40; 6HR MAX TEMP:  55;

WEST PLAINS    CLEAR     41  36  82 CALM      30.32S
6HR MIN TEMP:  40; 6HR MAX TEMP:  55;


$$



USA.gov is the U.S. government's official web portal to all federal, state and local government web resources and services.